CW8164 Weather Reports


Display with metric or nautical units.
time (UTC)temp
F
wind
direction
speed
MPH
gust
MPH
rain 1hr
in
rain 24hr
in
rain mn
in
humidity
%
barometer
mb
20260506210903 64 159 0.0 3.0 0.00 0.00 0.00 71 1020.7
20260506210403 64 35 1.0 3.0 0.00 0.00 0.00 73 1020.7
20260506205903 64 22 1.0 3.0 0.00 0.00 0.00 71 1020.7
20260506204902 64 286 0.0 2.0 0.00 0.00 0.00 71 1020.8
20260506204403 64 161 0.0 3.0 0.00 0.00 0.00 73 1020.7
20260506203903 63 272 0.0 3.0 0.00 0.00 0.00 73 1020.8
20260506203402 63 14 1.0 3.0 0.00 0.00 0.00 75 1020.8
20260506202903 63 264 1.0 3.0 0.00 0.00 0.00 74 1020.6
20260506202403 63 349 0.0 3.0 0.00 0.00 0.00 74 1020.7
20260506201903 63 170 0.0 2.0 0.00 0.00 0.00 73 1020.7
20260506201403 63 19 1.0 2.0 0.00 0.00 0.00 74 1020.7
20260506200902 62 300 0.0 2.0 0.00 0.00 0.00 74 1020.7
20260506200402 62 259 0.0 2.0 0.00 0.00 0.00 73 1020.8
20260506195903 62 276 0.0 5.0 0.00 0.00 0.00 72 1020.9
20260506195402 63 271 1.0 5.0 0.00 0.00 0.00 73 1020.9
20260506193402 63 257 1.0 3.0 0.00 0.00 0.00 73 1021.1
20260506192902 63 276 1.0 3.0 0.00 0.00 0.00 73 1021.1
20260506191903 62 276 1.0 5.0 0.00 0.00 0.00 75 1021.0
20260506191403 62 196 3.0 5.0 0.00 0.00 0.00 74 1021.0
20260506190403 62 348 0.0 3.0 0.00 0.00 0.00 76 1021.0
20260506185403 62 15 0.0 6.0 0.00 0.00 0.00 76 1020.9
20260506184403 61 261 0.0 6.0 0.00 0.00 0.00 77 1020.9
20260506183903 61 275 0.0 2.0 0.00 0.00 0.00 77 1020.9
20260506183403 61 296 1.0 2.0 0.00 0.00 0.00 78 1020.9
20260506182903 61 287 0.0 2.0 0.00 0.00 0.00 76 1020.8
20260506182403 61 225 1.0 2.0 0.00 0.00 0.00 78 1020.7
20260506181903 61 18 0.0 2.0 0.00 0.00 0.00 78 1020.9
20260506181403 60 234 0.0 2.0 0.00 0.00 0.00 78 1020.8
20260506180403 60 251 0.0 5.0 0.00 0.00 0.00 78 1020.7
20260506175903 60 282 0.0 5.0 0.00 0.00 0.00 79 1020.7
20260506175403 60 205 0.0 2.0 0.00 0.00 0.00 79 1020.8
20260506174903 59 203 1.0 3.0 0.00 0.00 0.00 78 1020.8
20260506173403 59 218 1.0 2.0 0.00 0.00 0.00 78 1020.7
20260506172903 59 248 0.0 2.0 0.00 0.00 0.00 80 1020.6
20260506172402 59 238 0.0 2.0 0.00 0.00 0.00 79 1020.5
20260506171904 59 306 1.0 3.0 0.00 0.00 0.00 79 1020.6
20260506171403 58 54 0.0 5.0 0.00 0.00 0.00 81 1020.5
20260506170403 58 30 1.0 5.0 0.00 0.00 0.00 80 1020.6
20260506165903 58 287 0.0 2.0 0.00 0.00 0.00 81 1020.6
20260506165402 58 150 0.0 2.0 0.00 0.00 0.00 80 1020.6
20260506164403 58 285 0.0 3.0 0.00 0.00 0.00 81 1020.6
20260506163402 58 242 0.0 2.0 0.00 0.00 0.00 82 1020.5
20260506162903 58 259 0.0 3.0 0.00 0.00 0.00 82 1020.6
20260506162404 58 194 1.0 3.0 0.00 0.00 0.00 82 1020.6
20260506161903 58 270 0.0 2.0 0.00 0.00 0.00 83 1020.4
20260506161402 58 318 1.0 2.0 0.00 0.00 0.00 82 1020.4
20260506160403 58 254 0.0 2.0 0.00 0.00 0.00 84 1020.2
20260506155902 57 258 0.0 2.0 0.00 0.00 0.00 83 1019.9
20260506154903 57 70 1.0 3.0 0.00 0.00 0.00 84 1019.8
20260506154403 57 97 1.0 3.0 0.00 0.00 0.00 84 1020.0
20260506153902 56 42 0.0 2.0 0.00 0.00 0.00 84 1020.1
20260506153402 56 99 0.0 2.0 0.00 0.00 0.00 84 1020.1
20260506152902 55 79 0.0 2.0 0.00 0.00 0.00 85 1020.4
20260506152403 55 21 0.0 0.0 0.00 0.00 0.00 86 1020.7
20260506151902 55 196 0.0 3.0 0.00 0.00 0.00 85 1020.6
20260506151403 55 314 0.0 3.0 0.00 0.00 0.00 87 1020.7
20260506150403 55 323 0.0 2.0 0.00 0.00 0.00 87 1020.6
20260506145903 55 177 0.0 2.0 0.00 0.00 0.00 87 1020.6
20260506145403 55 349 1.0 2.0 0.00 0.00 0.00 87 1020.4
20260506144904 55 282 0.0 2.0 0.00 0.00 0.00 87 1020.3
20260506144403 54 286 0.0 5.0 0.00 0.00 0.00 86 1020.3
20260506143903 54 261 2.0 5.0 0.00 0.00 0.00 86 1020.4
20260506143403 55 257 0.0 2.0 0.00 0.00 0.00 87 1020.3
20260506142903 55 246 0.0 2.0 0.00 0.00 0.00 87 1020.2
20260506142403 55 253 0.0 2.0 0.00 0.00 0.00 87 1020.0
20260506141902 54 242 0.0 1.0 0.00 0.00 0.00 87 1019.9
20260506140903 54 245 0.0 2.0 0.00 0.00 0.00 87 1019.8
20260506140403 54 241 0.0 2.0 0.00 0.00 0.00 87 1019.9
20260506135903 54 243 0.0 2.0 0.00 0.00 0.00 87 1019.9
20260506134903 54 283 0.0 2.0 0.00 0.00 0.00 87 1019.8
20260506134402 54 280 0.0 2.0 0.00 0.00 0.00 87 1019.7
20260506133902 54 274 0.0 2.0 0.00 0.00 0.00 87 1019.7
20260506132902 55 245 1.0 3.0 0.00 0.00 0.00 88 1019.7
20260506131903 55 257 0.0 0.0 0.00 0.00 0.00 88 1019.4
20260506130403 55 257 0.0 0.0 0.00 0.00 0.00 88 1019.2
20260506125903 55 257 0.0 0.0 0.00 0.00 0.00 87 1019.2
20260506125403 55 257 0.0 0.0 0.00 0.00 0.00 88 1019.1
20260506124903 55 257 0.0 0.0 0.00 0.00 0.00 88 1019.1
20260506123403 55 257 0.0 0.0 0.00 0.00 0.00 87 1019.1
20260506122902 55 257 0.0 0.0 0.00 0.00 0.00 87 1019.0
20260506121902 55 257 0.0 0.0 0.00 0.00 0.00 87 1019.0
20260506121403 55 257 0.0 0.0 0.00 0.00 0.00 88 1019.1
20260506120902 55 257 0.0 0.0 0.00 0.00 0.00 87 1019.1
20260506120402 55 257 0.0 0.0 0.00 0.00 0.00 87 1019.0
20260506115903 55 272 0.0 0.0 0.00 0.00 0.00 87 1019.0
20260506114903 55 285 0.0 0.0 0.00 0.00 0.00 87 1018.9
20260506114402 55 285 0.0 0.0 0.00 0.00 0.00 87 1018.7
20260506113903 55 285 0.0 0.0 0.00 0.00 0.00 87 1018.8
20260506113403 55 293 0.0 0.0 0.00 0.00 0.00 87 1018.8
20260506112903 55 340 0.0 0.0 0.00 0.00 0.00 87 1018.8
20260506111903 55 113 0.0 3.0 0.00 0.00 0.00 87 1018.6
20260506110903 55 210 0.0 0.0 0.00 0.00 0.00 87 1018.6
20260506110403 55 210 0.0 0.0 0.00 0.00 0.00 87 1018.4
20260506105903 55 210 0.0 0.0 0.00 0.00 0.00 87 1018.4
20260506105402 55 210 0.0 0.0 0.00 0.00 0.00 87 1018.3
20260506104402 55 210 0.0 0.0 0.00 0.00 0.00 87 1018.2
20260506103903 55 210 0.0 0.0 0.00 0.00 0.00 86 1018.1
20260506103403 55 210 0.0 0.0 0.00 0.00 0.00 87 1018.0
20260506102903 55 210 0.0 0.0 0.00 0.00 0.00 86 1018.0
20260506102403 55 210 0.0 0.0 0.00 0.00 0.00 86 1018.0
20260506101902 55 210 0.0 0.0 0.00 0.00 0.00 86 1017.9
20260506101403 55 210 0.0 0.0 0.00 0.00 0.00 86 1017.8
20260506100903 55 191 0.0 0.0 0.00 0.00 0.00 86 1017.8
20260506100404 55 191 0.0 0.0 0.00 0.00 0.00 86 1017.9
20260506095902 55 275 0.0 0.0 0.00 0.00 0.00 86 1017.8
20260506095403 55 275 0.0 0.0 0.00 0.00 0.00 86 1017.8
20260506094903 55 275 0.0 2.0 0.00 0.00 0.00 86 1017.8
20260506092903 56 248 0.0 0.0 0.00 0.00 0.00 86 1017.7
20260506092403 56 257 0.0 0.0 0.00 0.00 0.00 86 1017.7
20260506091903 56 262 0.0 0.0 0.00 0.00 0.00 86 1017.7
20260506091402 56 262 0.0 0.0 0.00 0.00 0.00 85 1017.7
20260506090903 56 262 0.0 0.0 0.00 0.00 0.00 85 1017.7
20260506090403 56 262 0.0 0.0 0.00 0.00 0.00 85 1017.7
20260506085903 56 262 0.0 0.0 0.00 0.00 0.00 85 1017.7
20260506085403 56 262 0.0 0.0 0.00 0.00 0.00 84 1017.7
20260506084403 56 263 0.0 0.0 0.00 0.00 0.00 85 1017.7
20260506083402 56 202 0.0 0.0 0.00 0.00 0.00 85 1017.7
20260506082903 56 260 0.0 0.0 0.00 0.00 0.00 84 1017.7
20260506082402 56 236 0.0 0.0 0.00 0.00 0.00 85 1017.6
20260506081903 56 203 0.0 0.0 0.00 0.00 0.00 85 1017.6
20260506081402 56 203 0.0 0.0 0.00 0.00 0.00 85 1017.6
20260506080903 56 219 0.0 0.0 0.00 0.00 0.00 86 1017.5
20260506080403 57 219 0.0 0.0 0.00 0.00 0.00 85 1017.5
20260506073402 57 221 0.0 0.0 0.00 0.00 0.00 86 1017.2
20260506072902 57 221 0.0 0.0 0.00 0.00 0.00 86 1017.3
20260506072403 57 221 0.0 0.0 0.00 0.00 0.00 88 1017.1
20260506071902 57 221 0.0 0.0 0.00 0.00 0.00 87 1017.1
20260506071403 57 221 0.0 0.0 0.00 0.00 0.00 88 1017.1
20260506070902 57 221 0.0 0.0 0.00 0.00 0.00 88 1017.1
20260506070402 57 221 0.0 0.0 0.00 0.00 0.00 87 1017.0
20260506061902 57 221 0.0 0.0 0.00 0.00 0.00 88 1016.9
20260506061403 57 221 0.0 0.0 0.00 0.00 0.00 88 1016.9
20260506060403 57 221 0.0 0.0 0.00 0.00 0.00 88 1016.8
20260506050903 56 135 0.0 0.0 0.00 0.00 0.00 89 1016.3
20260506050403 56 135 0.0 0.0 0.00 0.00 0.00 90 1016.3
20260506044902 56 135 0.0 0.0 0.00 0.00 0.00 89 1016.3
20260506044403 56 135 0.0 0.0 0.00 0.00 0.00 88 1016.2
20260506043903 56 135 0.0 0.0 0.00 0.00 0.00 88 1016.2
20260506042903 56 135 0.0 0.0 0.00 0.00 0.00 86 1016.0
20260506042403 56 135 0.0 0.0 0.00 0.00 0.00 85 1016.0
20260506041903 57 135 0.0 0.0 0.00 0.00 0.00 85 1015.8
20260506041404 57 135 0.0 0.0 0.00 0.00 0.00 84 1015.8
20260506035903 58 135 0.0 0.0 0.00 0.00 0.00 83 1015.7
20260506034903 59 135 0.0 0.0 0.00 0.00 0.00 82 1015.6
20260506034403 59 135 0.0 0.0 0.00 0.00 0.00 81 1015.4
20260506033903 60 135 0.0 0.0 0.00 0.00 0.00 79 1015.3
20260506033403 60 135 0.0 0.0 0.00 0.00 0.00 80 1015.4
20260506032903 60 135 0.0 0.0 0.00 0.00 0.00 79 1015.4
20260506032404 61 135 0.0 0.0 0.00 0.00 0.00 79 1015.3
20260506031902 61 135 0.0 0.0 0.00 0.00 0.00 79 1015.3
20260506031403 61 135 0.0 0.0 0.00 0.00 0.00 78 1015.3
20260506030903 61 135 0.0 0.0 0.00 0.00 0.00 77 1015.3
20260506030402 61 135 0.0 0.0 0.00 0.00 0.00 76 1015.2
20260506025903 61 135 0.0 0.0 0.00 0.00 0.00 75 1015.2
20260506025402 61 135 0.0 0.0 0.00 0.00 0.00 75 1015.2
20260506024903 62 135 0.0 0.0 0.00 0.00 0.00 76 1015.1
20260506024402 62 135 0.0 0.0 0.00 0.00 0.00 76 1015.0
20260506023903 62 135 0.0 0.0 0.00 0.00 0.00 76 1014.9
20260506023403 62 132 0.0 0.0 0.00 0.00 0.00 77 1015.1
20260506022903 62 126 0.0 0.0 0.00 0.00 0.00 76 1015.2
20260506022402 62 175 0.0 0.0 0.00 0.00 0.00 77 1015.0
20260506021903 62 175 0.0 0.0 0.00 0.00 0.00 77 1015.0
20260506015903 62 176 0.0 0.0 0.00 0.00 0.00 76 1015.0
20260506015403 62 177 0.0 0.0 0.00 0.00 0.00 75 1015.1
20260506014903 62 177 0.0 0.0 0.00 0.00 0.00 73 1015.1
20260506014402 62 177 0.0 0.0 0.00 0.00 0.00 74 1015.0
20260506013902 62 175 0.0 0.0 0.00 0.00 0.00 74 1015.1
20260506013403 62 147 0.0 0.0 0.00 0.00 0.00 73 1015.1
20260506012902 62 147 0.0 0.0 0.00 0.00 0.00 72 1015.1
20260506012403 62 103 0.0 0.0 0.00 0.00 0.00 73 1015.1
20260506011903 62 47 0.0 0.0 0.00 0.00 0.00 71 1015.1
20260506011403 62 47 0.0 0.0 0.00 0.00 0.00 72 1015.1
20260506010902 62 39 0.0 0.0 0.00 0.00 0.00 72 1015.1
20260506010403 62 355 0.0 0.0 0.00 0.00 0.00 72 1015.1
20260506005403 62 76 0.0 0.0 0.00 0.00 0.00 73 1015.1
20260506003903 62 276 0.0 2.0 0.00 0.00 0.00 72 1015.2
20260506003402 62 279 0.0 2.0 0.00 0.00 0.00 73 1015.2
20260506002403 62 149 0.0 2.0 0.00 0.00 0.00 73 1015.3
20260506001902 62 132 0.0 2.0 0.00 0.00 0.00 74 1015.2
20260506001402 62 41 0.0 2.0 0.00 0.00 0.00 74 1015.2
20260506000903 62 26 0.0 2.0 0.00 0.00 0.00 73 1015.3
20260506000403 62 30 1.0 5.0 0.00 0.00 0.00 74 1015.3
20260505235902 62 27 0.0 5.0 0.00 0.00 0.00 72 1015.4
20260505235403 62 5 0.0 5.0 0.00 0.00 0.00 73 1015.4
20260505234903 62 20 1.0 5.0 0.00 0.00 0.00 73 1015.4
20260505234403 62 272 0.0 1.0 0.00 0.00 0.00 73 1015.5
20260505233903 62 317 0.0 3.0 0.00 0.00 0.00 74 1015.5
20260505233403 62 25 1.0 3.0 0.00 0.00 0.00 73 1015.6
20260505232903 62 52 0.0 2.0 0.00 0.00 0.00 74 1015.6
20260505232403 62 115 0.0 2.0 0.00 0.00 0.00 72 1015.6
20260505231404 62 21 0.0 0.0 0.00 0.00 0.00 73 1015.6
20260505230904 62 267 0.0 0.0 0.00 0.00 0.00 72 1015.6
20260505225402 63 262 0.0 0.0 0.00 0.00 0.00 72 1015.7
20260505224903 63 238 0.0 0.0 0.00 0.00 0.00 73 1015.7
20260505224403 63 334 0.0 0.0 0.00 0.00 0.00 71 1015.7
20260505223403 63 9 0.0 0.0 0.00 0.00 0.00 72 1015.8
20260505222903 63 173 0.0 0.0 0.00 0.00 0.00 71 1015.7
20260505222403 63 276 0.0 2.0 0.00 0.00 0.00 73 1015.7
20260505221903 63 329 0.0 3.0 0.00 0.00 0.00 75 1015.8
20260505220403 63 30 1.0 5.0 0.00 0.00 0.00 74 1015.9
20260505215903 63 191 1.0 2.0 0.00 0.00 0.00 73 1015.9
20260505215403 63 7 1.0 2.0 0.00 0.00 0.00 72 1015.9
20260505214902 63 80 1.0 6.0 0.00 0.00 0.00 72 1016.0
20260505214403 63 139 1.0 6.0 0.00 0.00 0.00 74 1016.0
20260505213903 63 34 1.0 6.0 0.00 0.00 0.00 71 1016.0
20260505213403 63 272 0.0 2.0 0.00 0.00 0.00 71 1016.1
20260505212903 63 71 0.0 2.0 0.00 0.00 0.00 71 1016.1
20260505212403 63 160 1.0 2.0 0.00 0.00 0.00 72 1016.1
20260505211903 63 246 1.0 2.0 0.00 0.00 0.00 72 1016.1